Tracking 23762 objects as of 20-Oct-2021
HD Live streaming from Space Station
objects crossing your sky now

BREEZE-M R/B

Track BREEZE-M R/B now!


NORAD ID: 37186
Int'l Code: 2010-053B
Perigee: 3,633.9 km
Apogee: 34,020.8 km
Inclination: 21.9 °
Period: 663.5 minutes
Semi major axis: 25198 km
RCS: 7.5201 m2 (large)
Launch date: October 14, 2010
Source: Commonwealth of Independent States (former USSR) (CIS)
Launch site: TYURATAM MISSILE AND SPACE COMPLEX (TTMTR)

Note: This is a ROCKET BODY
aabbcc
Your satellite tracking list
Your tracking list is empty




NASA's NSSDC Master Catalog

Two Line Element Set (TLE):
1 37186U 10053B   21292.07675716 -.00000170  00000-0  00000-0 0  9998
2 37186  21.9380 265.2381 6029560 281.3075 215.9812  2.17042505 87291
Source of the keplerian elements: AFSPC